Unity

operational
NORAD ID: 25575 Int'l Des: 1998-069 Owner: JSC Country: US
LEOCIRCULAR

Über Unity

Beschreibung wird geladen...

Live-Position

3D-Globus wird geladen...

Nächste Überflüge

Höhenverlauf

Altitude vs Time

uPlot chart will show altitude changes over time

Zweizeiliger Elementsatz

1 25575U 98069F 26062.44686659 .00009386 00000-0 18180-3 0 9997
2 25575 51.6317 103.2200 0008211 152.5429 207.5995 15.48418100555023
Epoch: 3. März 2026 • Age: 23 hours

Aktueller Status

Höhe 433.3 km
Geschwindigkeit 7.65 km/s
Subsatellitenpunkt -39.78°S, 178.59°W
Startdatum 4. Dez. 1998
Alter 27.2 years
Typ other

Technische Details

Klassifizierung Payload
Masse 9280.00 kg
Trockenmasse 9280.00 kg
Gesamtmasse 11600.00 kg
Länge 5.20 m
Durchmesser 4.40 m
Spannweite 5.20 m
Form Cyl
Hersteller BOHSV
Bus-Typ ISS Node
Phasenstatus Attached in Orbit
Besitzer/Staat JSC/US

Große Konstellationen

Loading constellations...